GW1753 Weather Reports


Display with metric or nautical units.
time (UTC)temp
F
wind
direction
speed
MPH
gust
MPH
rain 1hr
in
rain 24hr
in
rain mn
in
humidity
%
barometer
mb
20260505113928 39 310 0.0 0.0 0.00 0.00 0.00 54 1022.0
20260505113425 39 308 0.0 0.0 0.00 0.00 0.00 53 1021.8
20260505112921 39 337 0.0 0.0 0.00 0.00 0.00 53 1022.1
20260505112419 39 309 0.0 0.0 0.00 0.00 0.00 53 1022.0
20260505111914 39 316 0.0 0.0 0.00 0.00 0.00 54 1021.8
20260505111409 39 310 0.0 0.0 0.00 0.00 0.00 54 1022.0
20260505110906 39 322 0.0 0.0 0.00 0.00 0.00 55 1021.8
20260505110403 39 314 0.0 0.0 0.00 0.00 0.00 56 1021.8
20260505101833 38 281 0.0 0.0 0.00 0.00 0.00 56 1021.7
20260505101328 39 269 0.0 0.0 0.00 0.00 0.00 56 1021.6
20260505100824 39 265 0.0 0.0 0.00 0.00 0.00 55 1021.7
20260505100321 39 265 0.0 0.0 0.00 0.00 0.00 56 1021.7
20260505095817 39 264 0.0 0.0 0.00 0.00 0.00 55 1021.8
20260505095315 39 262 0.0 0.0 0.00 0.00 0.00 55 1021.5
20260505094810 39 262 0.0 0.0 0.00 0.00 0.00 55 1021.4
20260505094308 39 260 0.0 0.0 0.00 0.00 0.00 55 1021.3
20260505093803 39 260 0.0 0.0 0.00 0.00 0.00 55 1021.4
20260505093301 39 260 0.0 0.0 0.00 0.00 0.00 55 1021.5
20260505092757 39 260 0.0 0.0 0.00 0.00 0.00 54 1021.4
20260505092256 39 260 0.0 0.0 0.00 0.00 0.00 54 1021.3
20260505091753 39 259 0.0 0.0 0.00 0.00 0.00 55 1021.4
20260505091251 39 259 0.0 0.0 0.00 0.00 0.00 55 1021.5
20260505090748 39 259 0.0 0.0 0.00 0.00 0.00 55 1021.4
20260505090246 39 260 0.0 0.0 0.00 0.00 0.00 55 1021.4
20260505085743 39 265 0.0 0.0 0.00 0.00 0.00 54 1021.2
20260505085242 39 265 0.0 0.0 0.00 0.00 0.00 55 1021.5
20260505084738 39 265 0.0 0.0 0.00 0.00 0.00 56 1021.6
20260505084238 39 265 0.0 0.0 0.00 0.00 0.00 56 1021.3
20260505083734 39 265 0.0 0.0 0.00 0.00 0.00 54 1021.5
20260505083231 39 273 0.0 0.0 0.00 0.00 0.00 57 1021.3
20260505082727 39 273 0.0 0.0 0.00 0.00 0.00 56 1021.4
20260505082224 39 273 0.0 0.0 0.00 0.00 0.00 54 1021.4
20260505081720 39 273 0.0 0.0 0.00 0.00 0.00 55 1021.3
20260505081218 39 273 0.0 0.0 0.00 0.00 0.00 57 1021.4
20260505080715 39 272 0.0 0.0 0.00 0.00 0.00 54 1021.3
20260505080210 39 273 0.0 0.0 0.00 0.00 0.00 54 1021.3
20260505075706 39 273 0.0 0.0 0.00 0.00 0.00 54 1021.6
20260505075203 39 273 0.0 0.0 0.00 0.00 0.00 54 1021.3
20260505074700 39 273 0.0 0.0 0.00 0.00 0.00 55 1021.2
20260505074157 39 273 0.0 0.0 0.00 0.00 0.00 53 1021.4
20260505073655 39 273 0.0 0.0 0.00 0.00 0.00 55 1021.2
20260505073153 39 273 0.0 0.0 0.00 0.00 0.00 53 1021.3
20260505072648 39 273 0.0 0.0 0.00 0.00 0.00 53 1021.4
20260505072145 40 273 0.0 0.0 0.00 0.00 0.00 52 1021.2
20260505071640 40 273 0.0 0.0 0.00 0.00 0.00 51 1021.2
20260505071139 39 273 0.0 0.0 0.00 0.00 0.00 53 1021.3
20260505070635 39 273 0.0 0.0 0.00 0.00 0.00 51 1021.3
20260505070132 39 272 0.0 0.0 0.00 0.00 0.00 52 1021.3
20260505065628 39 273 0.0 0.0 0.00 0.00 0.00 52 1021.4
20260505065124 39 268 0.0 0.0 0.00 0.00 0.00 53 1021.1
20260505064621 39 274 0.0 0.0 0.00 0.00 0.00 54 1020.8
20260505064120 39 329 0.0 0.0 0.00 0.00 0.00 52 1021.3
20260505063617 39 345 0.0 0.0 0.00 0.00 0.00 52 1021.3
20260505063113 40 13 0.0 0.0 0.00 0.00 0.00 50 1021.1
20260505062609 39 344 0.0 0.0 0.00 0.00 0.00 51 1021.2
20260505062107 39 312 0.0 0.0 0.00 0.00 0.00 51 1021.0
20260505061604 40 314 0.0 0.0 0.00 0.00 0.00 51 1021.1
20260505061102 40 327 0.0 0.0 0.00 0.00 0.00 50 1021.2
20260505060559 40 350 0.0 0.0 0.00 0.00 0.00 50 1021.1
20260505060055 40 8 0.0 0.0 0.00 0.00 0.00 49 1021.0
20260505055551 40 39 0.0 0.0 0.00 0.00 0.00 49 1020.9
20260505055048 40 43 0.0 2.0 0.00 0.00 0.00 49 1021.0
20260505054545 40 34 0.0 1.0 0.00 0.00 0.00 50 1020.9
20260505054043 40 32 0.0 1.0 0.00 0.00 0.00 50 1020.6
20260505053540 40 39 0.0 1.0 0.00 0.00 0.00 50 1021.0
20260505053037 40 24 0.0 1.0 0.00 0.00 0.00 50 1020.8
20260505052534 40 38 0.0 1.0 0.00 0.00 0.00 50 1020.6
20260505052031 39 16 0.0 0.0 0.00 0.00 0.00 51 1020.8
20260505051528 39 340 0.0 0.0 0.00 0.00 0.00 52 1020.5
20260505051026 39 327 0.0 0.0 0.00 0.00 0.00 51 1020.5
20260505050524 39 318 0.0 0.0 0.00 0.00 0.00 51 1020.8
20260505041451 43 44 2.0 4.0 0.00 0.00 0.00 45 1020.4
20260505040949 43 33 3.0 7.0 0.00 0.00 0.00 45 1020.3
20260505040446 43 49 2.0 7.0 0.00 0.00 0.00 45 1020.3
20260505035943 43 42 1.0 3.0 0.00 0.00 0.00 45 1020.2
20260505035439 43 19 0.0 8.0 0.00 0.00 0.00 44 1020.0
20260505034936 43 39 0.0 6.0 0.00 0.00 0.00 44 1020.1
20260505034432 43 27 1.0 6.0 0.00 0.00 0.00 44 1020.2
20260505033930 44 34 0.0 3.0 0.00 0.00 0.00 43 1020.1
20260505033426 44 36 1.0 3.0 0.00 0.00 0.00 43 1020.1
20260505032925 44 47 2.0 8.0 0.00 0.00 0.00 42 1020.1
20260505032422 43 46 1.0 3.0 0.00 0.00 0.00 43 1020.0
20260505031918 44 345 0.0 3.0 0.00 0.00 0.00 42 1019.7
20260505031415 44 51 0.0 3.0 0.00 0.00 0.00 41 1019.7
20260505030912 45 54 2.0 4.0 0.00 0.00 0.00 41 1019.4
20260505030408 45 3 0.0 3.0 0.00 0.00 0.00 41 1019.6
20260505025903 46 47 0.0 0.0 0.00 0.00 0.00 40 1019.4
20260505025401 46 9 1.0 4.0 0.00 0.00 0.00 38 1019.7
20260505024900 46 47 2.0 4.0 0.00 0.00 0.00 37 1019.3
20260505024357 47 16 1.0 2.0 0.00 0.00 0.00 36 1019.2
20260505023854 47 68 1.0 8.0 0.00 0.00 0.00 36 1019.0
20260505023351 48 351 2.0 4.0 0.00 0.00 0.00 35 1019.0
20260505022848 48 5 0.0 7.0 0.00 0.00 0.00 33 1019.0
20260505022345 49 7 2.0 3.0 0.00 0.00 0.00 31 1018.8
20260505021842 50 341 2.0 3.0 0.00 0.00 0.00 30 1018.8
20260505021338 50 338 5.0 7.0 0.00 0.00 0.00 29 1018.6
20260505020834 51 345 2.0 4.0 0.00 0.00 0.00 27 1018.6
20260505020330 52 351 3.0 6.0 0.00 0.00 0.00 26 1018.6
20260505015827 52 20 3.0 6.0 0.00 0.00 0.00 26 1018.5
20260505015324 53 339 0.0 2.0 0.00 0.00 0.00 26 1018.4
20260505014821 53 357 0.0 3.0 0.00 0.00 0.00 26 1018.5
20260505014318 54 348 1.0 6.0 0.00 0.00 0.00 25 1018.5
20260505013815 54 5 1.0 3.0 0.00 0.00 0.00 25 1018.1
20260505013312 55 351 2.0 6.0 0.00 0.00 0.00 23 1018.1
20260505012811 55 5 3.0 11.0 0.00 0.00 0.00 23 1018.1
20260505012308 55 326 6.0 11.0 0.00 0.00 0.00 22 1018.1
20260505011803 55 346 7.0 10.0 0.00 0.00 0.00 22 1018.2
20260505011301 55 333 3.0 8.0 0.00 0.00 0.00 22 1018.2
20260505010756 54 350 7.0 13.0 0.00 0.00 0.00 22 1018.2
20260505010253 54 354 4.0 15.0 0.00 0.00 0.00 22 1018.2
20260505005749 55 357 7.0 14.0 0.00 0.00 0.00 22 1018.0
20260505005246 56 306 6.0 9.0 0.00 0.00 0.00 22 1018.2
20260505004743 55 341 9.0 15.0 0.00 0.00 0.00 22 1018.1
20260505004239 55 348 9.0 15.0 0.00 0.00 0.00 22 1018.4
20260505003737 56 331 6.0 15.0 0.00 0.00 0.00 22 1018.4
20260505003235 55 353 13.0 21.0 0.00 0.00 0.00 22 1018.2
20260505002731 55 346 8.0 15.0 0.00 0.00 0.00 23 1018.1
20260505002228 57 4 14.0 18.0 0.00 0.00 0.00 23 1018.1
20260505001725 57 325 12.0 18.0 0.00 0.00 0.00 23 1018.4
20260505001223 57 330 9.0 13.0 0.00 0.00 0.00 23 1018.1
20260505000720 57 335 12.0 18.0 0.00 0.00 0.00 23 1018.0
20260505000219 57 352 7.0 16.0 0.00 0.00 0.00 24 1017.9
20260504235714 57 19 8.0 19.0 0.00 0.00 0.00 24 1018.2
20260504235210 57 2 11.0 13.0 0.00 0.00 0.00 24 1018.1
20260504234708 57 319 11.0 15.0 0.00 0.00 0.00 23 1018.2
20260504234205 57 359 8.0 17.0 0.00 0.00 0.00 24 1018.2
20260504233701 57 346 8.0 14.0 0.00 0.00 0.00 24 1018.2
20260504233157 57 21 6.0 13.0 0.00 0.00 0.00 24 1018.4
20260504232654 57 337 11.0 15.0 0.00 0.00 0.00 24 1018.2
20260504232151 55 332 6.0 11.0 0.00 0.00 0.00 25 1018.4
20260504231648 57 6 8.0 17.0 0.00 0.00 0.00 25 1018.1
20260504231144 57 331 8.0 10.0 0.00 0.00 0.00 26 1018.2
20260504230640 56 3 8.0 15.0 0.00 0.00 0.00 26 1018.1
20260504230139 57 306 7.0 18.0 0.00 0.00 0.00 27 1018.2
20260504225637 58 324 5.0 15.0 0.00 0.00 0.00 27 1018.2
20260504225133 57 357 7.0 18.0 0.00 0.00 0.00 27 1018.2
20260504224630 56 329 10.0 17.0 0.00 0.00 0.00 29 1018.0
20260504224127 55 322 10.0 15.0 0.00 0.00 0.00 29 1018.1
20260504223624 55 331 13.0 18.0 0.00 0.00 0.00 29 1018.4
20260504223120 55 339 6.0 16.0 0.00 0.00 0.00 30 1018.4
20260504222617 56 340 13.0 19.0 0.00 0.00 0.00 29 1018.4
20260504222114 55 324 7.0 14.0 0.00 0.00 0.00 30 1018.4
20260504221611 55 359 8.0 11.0 0.00 0.00 0.00 29 1018.4
20260504221108 55 332 7.0 16.0 0.00 0.00 0.00 30 1018.4
20260504220604 58 356 15.0 17.0 0.00 0.00 0.00 27 1018.2
20260504215558 55 325 4.0 15.0 0.00 0.00 0.00 29 1018.4
20260504215055 55 333 8.0 18.0 0.00 0.00 0.00 29 1018.5
20260504214551 55 326 10.0 14.0 0.00 0.00 0.00 31 1018.4
20260504214048 55 326 12.0 14.0 0.00 0.00 0.00 30 1018.5
20260504213544 55 327 4.0 13.0 0.00 0.00 0.00 31 1018.7
20260504213041 55 328 8.0 15.0 0.00 0.00 0.00 31 1018.4
20260504212537 55 322 9.0 11.0 0.00 0.00 0.00 31 1018.5
20260504212035 56 343 6.0 11.0 0.00 0.00 0.00 32 1018.7
20260504211531 55 8 11.0 17.0 0.00 0.00 0.00 33 1018.4
20260504211028 55 350 7.0 15.0 0.00 0.00 0.00 33 1018.5
20260504210525 55 19 10.0 17.0 0.00 0.00 0.00 32 1018.4
20260504210022 55 358 11.0 15.0 0.00 0.00 0.00 33 1018.4
20260504205520 56 9 12.0 15.0 0.00 0.00 0.00 31 1018.4
20260504205018 55 334 9.0 17.0 0.00 0.00 0.00 33 1018.6
20260504204515 57 341 4.0 13.0 0.00 0.00 0.00 32 1018.1
20260504204015 57 356 11.0 17.0 0.00 0.00 0.00 31 1018.4
20260504203512 59 338 7.0 9.0 0.00 0.00 0.00 30 1018.1
20260504203009 58 14 11.0 18.0 0.00 0.00 0.00 31 1018.1
20260504202504 58 343 10.0 16.0 0.00 0.00 0.00 31 1017.8
20260504202001 59 334 7.0 15.0 0.00 0.00 0.00 31 1018.2
20260504201459 57 327 8.0 14.0 0.00 0.00 0.00 33 1018.2
20260504200956 58 295 7.0 10.0 0.00 0.00 0.00 31 1017.9
20260504200453 56 29 10.0 16.0 0.00 0.00 0.00 32 1018.0
20260504195949 56 345 10.0 19.0 0.00 0.00 0.00 32 1018.0
20260504195445 57 14 7.0 19.0 0.00 0.00 0.00 32 1018.1
20260504194942 56 332 8.0 13.0 0.00 0.00 0.00 32 1018.0
20260504194438 56 343 11.0 15.0 0.00 0.00 0.00 32 1018.1
20260504193934 56 347 12.0 17.0 0.00 0.00 0.00 32 1017.9
20260504193431 57 5 7.0 10.0 0.00 0.00 0.00 32 1018.1
20260504192930 57 349 9.0 14.0 0.00 0.00 0.00 31 1018.2
20260504192427 56 12 9.0 18.0 0.00 0.00 0.00 32 1018.0
20260504191926 58 340 9.0 17.0 0.00 0.00 0.00 32 1018.0
20260504191424 57 330 10.0 17.0 0.00 0.00 0.00 31 1018.1
20260504190918 57 325 9.0 16.0 0.00 0.00 0.00 31 1018.4
20260504190414 58 359 13.0 17.0 0.00 0.00 0.00 30 1018.1
20260504185911 58 325 9.0 14.0 0.00 0.00 0.00 31 1018.2
20260504185409 60 8 13.0 18.0 0.00 0.00 0.00 29 1018.4
20260504184904 59 320 4.0 13.0 0.00 0.00 0.00 32 1018.2
20260504184400 59 345 13.0 18.0 0.00 0.00 0.00 31 1018.4
20260504183856 59 353 9.0 18.0 0.00 0.00 0.00 31 1018.1
20260504183354 59 354 9.0 14.0 0.00 0.00 0.00 31 1018.4
20260504182851 59 350 6.0 15.0 0.00 0.00 0.00 33 1018.4
20260504182349 59 298 12.0 17.0 0.00 0.00 0.00 31 1018.4
20260504181845 57 333 11.0 21.0 0.00 0.00 0.00 33 1018.4
20260504181343 58 338 7.0 16.0 0.00 0.00 0.00 34 1018.5
20260504180842 58 2 6.0 10.0 0.00 0.00 0.00 33 1018.5
20260504180339 58 328 5.0 17.0 0.00 0.00 0.00 36 1018.5
20260504175837 58 12 10.0 17.0 0.00 0.00 0.00 36 1018.4
20260504175334 56 308 10.0 16.0 0.00 0.00 0.00 35 1018.5
20260504174832 57 4 6.0 13.0 0.00 0.00 0.00 37 1018.6
20260504174329 57 326 7.0 14.0 0.00 0.00 0.00 37 1018.6
20260504173826 56 315 9.0 14.0 0.00 0.00 0.00 37 1018.6
20260504173323 57 350 8.0 11.0 0.00 0.00 0.00 36 1018.5
20260504172820 56 338 12.0 13.0 0.00 0.00 0.00 38 1018.7
20260504172317 57 339 10.0 15.0 0.00 0.00 0.00 36 1018.6
20260504171812 58 323 5.0 13.0 0.00 0.00 0.00 37 1018.6
20260504171310 55 0 10.0 18.0 0.00 0.00 0.00 38 1018.6
20260504170807 55 2 7.0 14.0 0.00 0.00 0.00 41 1018.5
20260504170304 56 2 9.0 11.0 0.00 0.00 0.00 41 1018.5
20260504160222 53 330 4.0 11.0 0.00 0.00 0.00 49 1018.7
20260504150647 50 289 5.0 11.0 0.00 0.00 0.00 56 1019.0
20260504150144 49 290 7.0 13.0 0.00 0.00 0.00 58 1018.9
20260504141113 48 297 7.0 11.0 0.00 0.00 0.00 62 1018.9
20260504140610 48 316 5.0 9.0 0.00 0.00 0.00 62 1018.9
20260504140105 48 275 3.0 6.0 0.00 0.00 0.00 63 1018.9
20260504130534 46 278 4.0 7.0 0.00 0.00 0.00 64 1018.9